Regional Weather Roundup
Issued by NWS

Home | Current Version | Previous Version | Text Only | Print | Product List | Glossary Off
Versions: 1 2 3 4 5 6 7 8 9 10 11 12 13 14 15 16 17 18 19 20 21 22 23 24 25 26 27 28 29 30 31 32 33 34 35 36 37 38 39 40 41 42 43 44 45 46 47 48 49 50

000
ASUS45 KSLC 010110
RWRUT

UTAH REGIONAL WEATHER ROUNDUP
NATIONAL WEATHER SERVICE SALT LAKE CITY UT
700 PM MDT TUE JUN 30 2015

UTZ001>011-023>025-010200-

NORTHERN UTAH

CITY           SKY/WX    TMP DP  RH WIND       PRES   REMARKS
HILL AFB       MOSUNNY   95  48  20 NW8       30.02F HX  91
LOGAN          SUNNY     96  48  19 CALM      29.98F HX  92
OGDEN          PTSUNNY   96  46  18 W6        29.98S HX  92
PROVO AIRPORT  PTSUNNY   93  55  27 NW8       29.98S HX  91
SALT LAKE CITY PTSUNNY   99  48  17 N7        29.95S HX  95
VERNAL         CLOUDY    79  49  34 NW8       30.10F
WENDOVER       CLOUDY    90  50  25 W8        30.02S
WEST JORDAN    SUNNY     97  48  19 N10       30.00S HX  93

$$

UTZ012>022-026-027-010200-

SOUTHERN/CENTRAL UTAH

CITY           SKY/WX    TMP DP  RH WIND       PRES   REMARKS
BRYCE CANYON   CLOUDY    72  50  45 NW6       30.30F
CEDAR CITY     PTSUNNY   94  42  16 NW8       30.08F HX  90
MILFORD        CLOUDY    90  46  21 SW9G16    30.04R THUNDER
MOAB/CYNLANDS  SUNNY     97  42  15 NE23G33   29.93S HX  93
PRICE          CLOUDY    86  46  24 NE21G26   30.10S
ST GEORGE      MOCLDY   106  48  14 SW17      29.82F HX 102
KANAB          CLOUDY    95  45  17 N5        30.05  HX  91

$$

REGIONAL REPORTS     COLORADO/ARIZONA

CITY           SKY/WX    TMP DP  RH WIND       PRES   REMARKS
CRAIG, CO      CLOUDY    82  43  25 NW16G24   30.17R
GRAND JUNCTION PTSUNNY   87  45  23 NW24G31   30.00R
RIFLE          PTSUNNY   89  43  20 NW17G23   30.06R
MONTROSE       MOSUNNY   95  37  13 NW6       30.06S HX  90
CORTEZ         SUNNY     91  46  21 SW6       30.06F
PAGE, AZ       MOSUNNY  102  37  10 N6        29.92S HX  96
GRAND CANYON   PTSUNNY   89  42  19 N3        30.16F
KINGMAN        CLOUDY    98  53  22 SW15      29.92S HX  96
FLAGSTAFF      CLOUDY    77  53  43 SW5       30.24S

$$

REGIONAL REPORTS    NEVADA/IDAHO/WYOMING

CITY           SKY/WX    TMP DP  RH WIND       PRES   REMARKS
LAS VEGAS, NV    N/A    110  47  12 SW12      29.71F HX 106
ELY            LGT RAIN  78  47  33 SE10      30.24R
ELKO           CLOUDY    80  58  46 W16       30.11R
POCATELLO, ID  MOSUNNY   90  52  27 E12       30.01F
BURLEY         PTSUNNY   86  60  41 SW10      29.97F
EVANSTON, WY   MOSUNNY   86  44  23 W10       30.23S
ROCK SPRINGS   LGT RAIN  68  58  70 S14       30.20S

$$



USA.gov is the U.S. government's official web portal to all federal, state and local government web resources and services.